#timestamp,LO_Frequency,Hit,StdDev 
1563487215.9,286046982.6,P
1563487235.7,286046983.9,P
1563487255.6,286046982.1,Y
1563487275.4,286046994.7,P
1563487295.2,286046994.6,N
1563487315.1,286046995.8,N
1563487316.0,286046995.8,N
1563487335.8,286046999.0,N
1563487355.7,286046999.6,N
1563487375.5,286046999.3,N
1563487395.3,286046997.1,N
1563487415.2,286046996.4,N
1563487435.0,286046996.9,N
1563487435.9,286046996.9,N
1563487455.8,286046994.0,N
1563487475.6,286046989.4,Y
1563487495.4,286046992.2,P
1563487515.3,286046990.6,P
1563487535.1,286046989.9,P
1563487555.9,286046989.4,Y
1563487575.7,286046995.7,P
1563487595.5,286046998.0,N
1563487615.4,286046996.0,N
1563487635.2,286046996.0,N
1563487655.0,286046999.4,N
1563487655.9,286046999.4,N
1563487675.8,286046994.0,N
1563487695.6,286046992.5,Y
1563487715.5,286046998.4,P
1563487735.3,286046993.4,P
1563487755.1,286046996.3,N
1563487775.9,286046992.6,Y
1563487795.7,286046996.0,P
1563487815.6,286046997.0,P
1563487835.4,286046995.6,P
1563487855.2,286046990.1,Y
1563487875.1,286046993.8,P
1563487876.0,286046993.8,P
1563487895.8,286046995.6,P
1563487915.7,286046990.3,Y
1563487935.5,286046997.3,P
1563487955.3,286046998.7,N
1563487975.2,286046995.2,P
1563487995.0,286046997.0,N
1563487995.9,286046997.0,N
1563488015.8,286046993.4,Y
1563488035.6,286046995.0,P
1563488055.4,286046997.7,N
1563488075.3,286046992.2,P
1563488095.1,286046986.9,Y
1563488115.9,286046988.7,P
1563488135.7,286046986.4,P
1563488155.5,286046983.6,P
1563488175.4,286046977.5,Y
1563488195.2,286046987.5,P
1563488215.0,286046986.8,P
1563488246.0,286046979.3,E
1563488255.9,286046987.4,N
1563488275.7,286046998.8,P
1563488295.6,286046997.6,N
1563488315.4,286046996.1,N
1563488335.2,286046993.9,N
1563488355.1,286046992.5,N
1563488356.0,286046992.5,N
1563488375.8,286046989.0,Y
1563488395.7,286046994.2,P
1563488415.5,286046992.5,P
1563488435.3,286046991.1,P
1563488455.2,286046988.8,Y
1563488475.0,286046995.7,P
1563488475.9,286046995.7,P
1563488495.8,286046993.5,P
1563488515.6,286046992.1,Y
1563488535.4,286046997.1,P
1563488555.3,286046995.6,P
1563488575.1,286046993.9,P
1563488595.9,286046990.2,Y
1563488615.7,286046994.9,P
1563488635.5,286046995.8,P
1563488655.4,286046995.4,P
1563488675.2,286046993.5,Y
1563488695.0,286046999.4,P
1563488695.9,286046999.4,N
1563488715.8,286046997.0,N
1563488735.6,286046997.9,N
1563488755.5,286046993.6,Y
1563488775.3,286046995.6,P
1563488795.1,286046993.8,P
1563488815.9,286046992.3,P
1563488835.7,286046991.9,Y
1563488855.6,286046998.0,P
1563488875.4,286046995.1,P
1563488895.2,286046995.6,P
1563488915.1,286046993.6,Y
1563488916.0,286046993.6,P
1563488935.8,286046996.8,N
1563488955.6,286046997.2,N
1563488975.5,286046998.0,N
1563488995.3,286046995.4,Y
1563489015.2,286047000.6,P
1563489035.9,286046998.3,N
1563489055.7,286046999.2,N
1563489075.6,286046996.7,N
1563489095.4,286046997.0,N
1563489115.2,286046997.4,N
1563489135.1,286046997.8,N
1563489136.0,286046997.8,N
1563489155.8,286046995.8,Y
1563489175.7,286046997.5,P
1563489195.5,286046996.3,P
1563489215.3,286046994.1,P
1563489235.2,286046992.1,Y
1563489255.0,286046995.8,P
1563489255.9,286046995.8,P
1563489275.8,286046995.6,P
1563489295.6,286046995.9,Y
1563489315.4,286046996.9,P
1563489335.3,286046997.1,P
1563489355.1,286046997.6,P
1563489375.8,286046996.2,Y
1563489395.7,286046999.3,P
1563489415.5,286046999.6,N
1563489435.4,286046996.7,N
1563489455.2,286046999.6,N
1563489475.0,286046996.5,N
1563489475.9,286046996.5,N
1563489495.8,286046996.7,N
1563489515.6,286046999.5,N
1563489535.4,286046997.3,N
1563489555.3,286046997.9,N
1563489575.1,286046997.6,N
1563489595.9,286046997.8,N
1563489615.7,286046995.4,Y
1563489635.5,286046999.6,P
1563489655.4,286046996.9,P
1563489675.2,286046999.3,N
1563489695.0,286046996.8,N
1563489696.0,286046996.8,N
1563489715.8,286047000.7,N
1563489735.6,286046996.7,N
1563489755.5,286046997.0,N
1563489775.3,286046994.6,Y
1563489795.1,286046997.2,P
1563489815.9,286046995.5,P
1563489835.7,286046995.8,P
1563489855.6,286046993.7,Y
1563489875.4,286047001.2,P
1563489895.2,286046998.9,N
1563489915.1,286046998.9,N
1563489916.0,286046998.9,N
1563489935.8,286046999.0,N
1563489955.7,286046996.5,N
1563489975.5,286046997.2,N
1563489995.3,286046997.2,N
1563490015.2,286046997.3,N
1563490035.9,286046996.8,N
1563490055.7,286046997.1,N
1563490075.6,286046998.0,N
1563490095.4,286046997.8,N
1563490115.3,286046994.9,Y
1563490135.1,286046999.6,P
1563490136.0,286046999.6,N
1563490155.8,286046998.9,N
1563490175.7,286046998.9,N
1563490195.5,286046996.9,Y
1563490215.3,286046998.2,P
1563490235.2,286046998.8,P
1563490255.0,286047000.8,N
1563490255.9,286047000.8,N
1563490275.8,286046999.0,N
1563490295.6,286046998.4,N
1563490315.4,286046998.8,N
1563490335.3,286046997.0,Y
1563490355.1,286047001.2,P
1563490375.9,286047001.2,N
1563490395.7,286046998.3,N
1563490415.5,286046998.8,N
1563490435.4,286047001.2,N
1563490455.2,286046999.3,N
1563490475.0,286047000.7,N
1563490475.9,286047000.7,N
1563490495.8,286047000.7,N
1563490515.6,286046998.8,N
1563490535.5,286046996.7,Y
1563490555.3,286046997.7,P
1563490575.1,286046997.3,N
1563490595.9,286046997.5,N
1563490615.7,286046996.8,N
1563490635.5,286046996.7,N
1563490655.4,286046999.1,N
1563490675.2,286046999.1,N
1563490695.1,286046998.4,N
1563490696.0,286046998.4,N
1563490715.8,286046997.1,N
1563490735.6,286046997.7,N
1563490755.5,286046997.3,N
1563490775.3,286046998.0,N
1563490795.1,286046997.8,N
